Theta_e
349 349 351 352 348 348 349 355 358 356 356 356 355 353 350 345 338 332 329 325 323 322
348 349 348 347 349 350 350 353 357 355 357 355 354 350 348 343 335 330 326 324 323 321
351 350 349 348 349 351 349 352 353 355 355 353 351 349 346 342 335 328 324 325 323 321
348 352 350 350 352 356 354 355 354 354 354 351 348 348 344 337 332 327 323 323 321 320
353 352 351 349 350 354 355 355 355 356 352 350 348 347 343 340 332 326 324 323 320 317
353 352 350 351 352 354 354 355 357 357 351 349 347 346 344 340 327 324 324 321 319 317
352 352 351 352 353 354 356 356 355 357 353 348 346 345 342 331 326 324 322 320 318 317
352 353 353 353 354 355 356 357 354 355 351 348 346 344 337 330 326 324 320 321 319 314
353 352 352 353 353 356 355 355 357 354 350 345 347 335 334 331 327 326 321 319 317 314
352 352 353 353 354 354 355 353 355 352 348 344 339 329 330 332 327 324 322 320 319 318
353 352 354 353 353 353 355 354 355 351 346 341 327 322 322 326 327 322 321 322 319 315
354 353 353 353 352 355 354 355 354 350 343 338 324 318 318 319 323 322 320 319 317 314
354 354 353 354 354 355 356 356 353 345 342 334 323 315 315 317 322 320 319 317 312 317
354 354 356 355 356 355 356 356 350 343 339 334 322 314 312 313 320 321 319 318 310 304
Wind_Speed
7 4 4 4 3 3 1 2 6 5 4 6 6 5 5 4 4 5 4 4 4 3
7 7 6 7 5 4 4 3 5 5 6 6 6 5 5 4 4 5 4 4 4 3
9 8 7 6 7 6 6 5 4 5 7 6 6 5 5 4 4 6 3 3 4 3
11 10 9 8 6 6 6 5 6 6 7 7 6 6 5 6 5 6 4 2 4 3
13 12 12 11 8 7 7 7 7 6 7 7 7 6 6 5 6 6 5 4 5 3
13 14 13 13 9 8 8 8 7 7 8 7 7 7 7 5 6 5 6 6 5 4
16 15 13 12 11 10 10 11 9 8 8 8 7 7 7 7 6 5 6 6 6 6
16 14 13 12 11 12 11 12 7 7 7 7 7 7 7 7 7 7 6 5 5 6
13 13 14 13 13 11 13 9 8 10 10 8 7 12 13 9 7 7 7 6 5 6
14 15 15 14 12 12 13 8 10 10 10 10 7 12 13 13 6 7 7 7 6 5
15 16 14 14 14 14 12 11 10 10 10 9 6 13 12 11 7 6 7 7 7 7
16 17 16 16 16 13 13 11 10 10 11 11 8 14 13 10 6 7 7 6 6 8
17 18 18 18 17 14 12 11 8 9 11 13 11 14 14 10 5 6 5 5 6 14
16 18 16 14 14 12 11 9 10 11 9 10 12 11 16 14 6 6 6 6 5 5
Wind_Direction
197 192 191 211 221 242 317 169 155 190 151 129 133 125 115 106 121 111 120 94 51 46
188 193 205 218 234 234 244 190 207 197 142 136 134 134 109 126 122 101 98 112 85 89
187 188 204 216 227 226 242 249 182 164 146 144 149 140 106 124 125 109 104 132 99 74
195 191 202 218 221 216 204 203 186 173 161 163 162 148 131 136 151 136 146 131 107 75
191 193 197 216 220 207 212 211 205 186 169 175 168 159 157 175 165 167 180 164 102 92
191 192 199 211 213 205 205 216 207 183 177 181 169 158 168 170 171 160 145 142 130 132
194 194 197 204 209 207 204 211 203 190 176 180 168 158 163 152 147 145 139 128 123 118
194 191 194 200 204 208 210 218 182 167 175 173 159 160 159 160 162 153 153 148 150 149
186 188 194 199 208 203 210 206 168 182 177 168 168 162 166 159 165 165 164 174 168 172
186 191 199 202 202 202 207 183 183 183 172 171 155 160 179 168 167 161 173 180 174 189
187 197 197 200 205 205 205 194 186 181 171 154 160 156 162 152 161 163 178 176 171 137
188 195 198 203 205 203 204 196 187 169 156 162 166 168 164 154 163 159 169 157 156 133
193 197 201 203 204 205 202 197 167 165 173 168 166 176 170 163 163 164 171 157 155 147
197 203 203 202 203 201 199 178 169 168 169 164 164 176 176 179 170 176 175 174 179 177